FWG11W EDDG-EDDC

Flight info

Callsign FWG11W
Flight time N/A
Altitude 35000
Route OSNAD1E/07 OSNAD L980 SAS DCT ABGUS Z94 GALMA Z21 RIVSA
Aircraft A20N/M-SDE2E3FGHIRWXY/LB1

Departure

Time 2026-05-08 18:55
Airport Münster Osnabrück Airport (EDDG)

Arrival

Time N/A
Airport Dresden Airport (EDDC)
Time Latitude Longitude Altitude Speed Heading
2026-05-08 18:25 52.13312 7.69395 163 ft 0 kts 161°
2026-05-08 18:47 52.13312 7.69396 163 ft 0 kts 161°
2026-05-08 18:48 52.13305 7.69400 163 ft 3 kts 161°
2026-05-08 18:48 52.13273 7.69416 163 ft 5 kts 172°
2026-05-08 18:49 52.13242 7.69374 163 ft 7 kts 260°
2026-05-08 18:49 52.13275 7.69309 163 ft 8 kts 337°
2026-05-08 18:49 52.13300 7.69294 163 ft 2 kts 340°
2026-05-08 18:49 52.13321 7.69281 163 ft 4 kts 340°
2026-05-08 18:50 52.13356 7.69262 163 ft 6 kts 342°
2026-05-08 18:50 52.13403 7.69236 163 ft 8 kts 336°
2026-05-08 18:50 52.13429 7.69155 163 ft 9 kts 263°
2026-05-08 18:50 52.13421 7.69105 163 ft 0 kts 252°
2026-05-08 18:51 52.13419 7.69097 163 ft 4 kts 252°
2026-05-08 18:51 52.13395 7.68983 163 ft 14 kts 250°
2026-05-08 18:52 52.13362 7.68829 163 ft 15 kts 251°
2026-05-08 18:52 52.13324 7.68650 160 ft 18 kts 251°
2026-05-08 18:52 52.13284 7.68455 160 ft 18 kts 251°
2026-05-08 18:52 52.13241 7.68256 160 ft 18 kts 251°
2026-05-08 18:53 52.13198 7.68053 160 ft 19 kts 251°
2026-05-08 18:53 52.13155 7.67846 160 ft 19 kts 251°
2026-05-08 18:53 52.13110 7.67637 160 ft 19 kts 251°
2026-05-08 18:53 52.13065 7.67427 160 ft 19 kts 251°
2026-05-08 18:54 52.13029 7.67241 161 ft 15 kts 263°
2026-05-08 18:54 52.13059 7.67101 160 ft 11 kts 314°
2026-05-08 18:54 52.13096 7.67056 160 ft 7 kts 335°
2026-05-08 18:54 52.13147 7.67049 160 ft 7 kts 28°
2026-05-08 18:55 52.13289 7.67670 162 ft 97 kts 72°
2026-05-08 18:55 52.13591 7.69130 262 ft 162 kts 73°
2026-05-08 18:55 52.13954 7.70978 812 ft 180 kts 72°
2026-05-08 18:56 52.14353 7.72809 1929 ft 172 kts 72°
2026-05-08 18:56 52.14743 7.74594 2818 ft 178 kts 72°
2026-05-08 18:56 52.15167 7.76566 3523 ft 195 kts 72°
2026-05-08 18:56 52.15633 7.78757 4139 ft 219 kts 72°
2026-05-08 18:57 52.16126 7.81239 4884 ft 240 kts 76°
2026-05-08 18:57 52.16491 7.83951 5655 ft 259 kts 82°
2026-05-08 18:57 52.16751 7.86929 6582 ft 272 kts 83°
2026-05-08 18:57 52.16994 7.89977 7662 ft 278 kts 83°
2026-05-08 18:58 52.17238 7.93065 8763 ft 281 kts 83°
2026-05-08 18:58 52.17485 7.96201 9837 ft 285 kts 83°
2026-05-08 18:58 52.17736 7.99390 10814 ft 291 kts 83°
2026-05-08 18:58 52.18003 8.02757 11477 ft 309 kts 82°
2026-05-08 18:59 52.18287 8.06347 12060 ft 328 kts 82°
2026-05-08 18:59 52.18586 8.10124 12617 ft 346 kts 82°
2026-05-08 18:59 52.18893 8.14020 13385 ft 356 kts 82°
2026-05-08 18:59 52.19205 8.18023 14266 ft 361 kts 82°
2026-05-08 19:00 52.19524 8.22111 15143 ft 366 kts 82°
2026-05-08 19:00 52.19841 8.26191 15977 ft 372 kts 82°
2026-05-08 19:00 52.20097 8.30431 16800 ft 377 kts 85°
2026-05-08 19:00 52.20270 8.34674 17579 ft 383 kts 85°
2026-05-08 19:01 52.20431 8.38982 18353 ft 388 kts 85°
2026-05-08 19:01 52.20594 8.43409 19106 ft 393 kts 85°
2026-05-08 19:01 52.20757 8.47848 19852 ft 397 kts 85°
2026-05-08 19:01 52.20920 8.52314 20595 ft 401 kts 85°
2026-05-08 19:02 52.21082 8.56854 21328 ft 405 kts 85°
2026-05-08 19:02 52.21246 8.61476 22055 ft 409 kts 85°
2026-05-08 19:02 52.21409 8.66114 22772 ft 413 kts 86°
2026-05-08 19:02 52.21572 8.70814 23462 ft 418 kts 86°
2026-05-08 19:03 52.21733 8.75499 24127 ft 422 kts 86°
2026-05-08 19:03 52.21894 8.80288 24782 ft 426 kts 86°
2026-05-08 19:03 52.22056 8.85130 25394 ft 430 kts 86°
2026-05-08 19:03 52.22215 8.89965 25975 ft 434 kts 86°
2026-05-08 19:04 52.22376 8.94904 26558 ft 438 kts 86°
2026-05-08 19:04 52.22535 8.99865 27116 ft 442 kts 86°
2026-05-08 19:04 52.22695 9.04912 27651 ft 446 kts 86°
2026-05-08 19:04 52.22854 9.09944 28166 ft 450 kts 86°
2026-05-08 19:05 52.23011 9.15047 28649 ft 453 kts 86°
2026-05-08 19:05 52.23166 9.20145 29117 ft 456 kts 86°
2026-05-08 19:05 52.23322 9.25345 29558 ft 459 kts 86°
2026-05-08 19:05 52.23477 9.30504 29964 ft 462 kts 86°
2026-05-08 19:06 52.23636 9.35768 30354 ft 464 kts 86°
2026-05-08 19:06 52.23793 9.41007 30713 ft 467 kts 86°
2026-05-08 19:06 52.23949 9.46331 31145 ft 466 kts 86°
2026-05-08 19:06 52.24099 9.51583 31577 ft 465 kts 86°
2026-05-08 19:07 52.24247 9.56803 31969 ft 465 kts 86°
2026-05-08 19:07 52.24392 9.62064 32335 ft 466 kts 86°
2026-05-08 19:07 52.24535 9.67313 32700 ft 466 kts 87°
2026-05-08 19:07 52.24677 9.72634 33078 ft 466 kts 88°
2026-05-08 19:08 52.24663 9.77901 33429 ft 466 kts 92°
2026-05-08 19:08 52.24367 9.83136 33741 ft 467 kts 98°
2026-05-08 19:08 52.23779 9.88362 34009 ft 469 kts 103°
2026-05-08 19:08 52.22902 9.93486 34260 ft 470 kts 109°
2026-05-08 19:09 52.21743 9.98475 34514 ft 471 kts 114°
2026-05-08 19:09 52.20325 10.03276 34746 ft 471 kts 118°
2026-05-08 19:09 52.18797 10.08012 34951 ft 472 kts 119°
2026-05-08 19:09 52.17247 10.12746 35111 ft 474 kts 119°
2026-05-08 19:10 52.15701 10.17465 35147 ft 475 kts 119°
2026-05-08 19:10 52.12603 10.26955 35154 ft 476 kts 118°
2026-05-08 19:11 52.09502 10.36462 35157 ft 476 kts 118°
2026-05-08 19:11 52.06406 10.45930 35157 ft 476 kts 118°
2026-05-08 19:12 52.03287 10.55440 35157 ft 475 kts 119°